TimeAKST,TemperatureF,Dew PointF,Humidity,Sea Level PressureIn,VisibilityMPH,Wind Direction,Wind SpeedMPH,Gust SpeedMPH,PrecipitationIn,Events,Conditions,WindDirDegrees,DateUTC
12:53 AM,39.0,33.1,79,29.81,10.0,Calm,Calm,-,N/A,,Clear,0,2013-01-22 09:53:00
1:53 AM,37.9,33.1,83,29.79,10.0,Calm,Calm,-,N/A,,Clear,0,2013-01-22 10:53:00
3:53 AM,37.9,32.0,79,29.74,10.0,Calm,Calm,-,N/A,,Partly Cloudy,0,2013-01-22 12:53:00
4:53 AM,39.0,34.0,82,29.75,10.0,Variable,3.5,-,N/A,,Overcast,0,2013-01-22 13:53:00
5:53 AM,43.0,34.0,71,29.72,10.0,Variable,5.8,-,N/A,,Overcast,0,2013-01-22 14:53:00
6:53 AM,43.0,35.1,74,29.71,10.0,Calm,Calm,-,N/A,,Overcast,0,2013-01-22 15:53:00
7:53 AM,42.1,37.0,82,29.71,10.0,SSE,3.5,-,0.00,,Overcast,160,2013-01-22 16:53:00
8:53 AM,42.1,39.0,89,29.70,10.0,Variable,3.5,-,0.00,,Overcast,0,2013-01-22 17:53:00
9:53 AM,46.0,37.0,71,29.69,10.0,Variable,3.5,-,0.00,,Overcast,0,2013-01-22 18:53:00
10:53 AM,46.9,37.0,68,29.69,10.0,Calm,Calm,-,N/A,,Overcast,0,2013-01-22 19:53:00
11:53 AM,46.0,39.0,76,29.68,10.0,South,5.8,-,0.00,Rain,Light Rain,190,2013-01-22 20:53:00
12:53 PM,45.0,39.0,80,29.67,9.0,Variable,3.5,-,0.02,Rain,Light Rain,0,2013-01-22 21:53:00
1:53 PM,44.1,39.0,82,29.66,10.0,Calm,Calm,-,0.02,Rain,Light Rain,0,2013-01-22 22:53:00
2:53 PM,43.0,37.9,82,29.65,10.0,Calm,Calm,-,0.02,Rain,Light Rain,0,2013-01-22 23:53:00
3:53 PM,42.1,37.9,85,29.66,10.0,Calm,Calm,-,0.02,Rain,Light Rain,0,2013-01-23 00:53:00
4:53 PM,41.0,37.9,89,29.64,10.0,Calm,Calm,-,0.04,Rain,Light Rain,0,2013-01-23 01:53:00
5:53 PM,41.0,37.0,86,29.62,10.0,Variable,3.5,-,0.00,Rain,Light Rain,0,2013-01-23 02:53:00
6:53 PM,42.1,37.9,85,29.63,10.0,Variable,4.6,-,0.01,Rain,Light Rain,0,2013-01-23 03:53:00
7:36 PM,39.2,39.2,100,29.62,10.0,WSW,3.5,-,0.01,Rain,Light Rain,240,2013-01-23 04:36:00
7:53 PM,41.0,37.9,89,29.62,10.0,Calm,Calm,-,0.01,Rain,Light Rain,0,2013-01-23 04:53:00
8:53 PM,41.0,37.9,89,29.62,10.0,Calm,Calm,-,0.01,Rain,Light Rain,0,2013-01-23 05:53:00
9:53 PM,39.9,37.9,93,29.62,10.0,Calm,Calm,-,0.01,Rain,Light Rain,0,2013-01-23 06:53:00
10:53 PM,39.9,37.9,93,29.62,10.0,Calm,Calm,-,0.04,Rain,Light Rain,0,2013-01-23 07:53:00
11:53 PM,39.9,39.0,97,29.63,10.0,Calm,Calm,-,0.02,Rain,Light Rain,0,2013-01-23 08:53:00